Sitka, Alaska, United States (99835)
Lat: 57.05N, Lon: 135.33W
Wx Zone: AKZ023
Local Info
Past Weather Observations for Wednesday, January 28, 2015

NOTE: This archive is for the closest National Weather Service station to Sitka. Information may differ from the station used for current weather conditions.

Click here for Long-term Archive

Time Weather Temperature Dewpoint Humidity Pressure Winds Precip Visibility
23:53
Overcast
43°F / 6°C 43°F / 6°C 100% 30.01 in
(1016 mb)
S 10.4 mph
(S 17 kph)
0.01 in
(0.25 mm)
10SM
23:13
Overcast
45°F / 7°C 43°F / 6°C 93% 29.98 in
(1015 mb)
SSE 9.2 mph
(SSE 15 kph)
- 10SM
22:53
Overcast
45°F / 7°C 43°F / 6°C 93% 29.98 in
(1015 mb)
S 10.4 mph
(S 17 kph)
0.02 in
(0.51 mm)
10SM
22:40
Overcast
45°F / 7°C 43°F / 6°C 93% 29.98 in
(1015 mb)
S 9.2 mph
(S 15 kph)
0.02 in
(0.51 mm)
10SM
21:53
Overcast
Fog And Mist
45°F / 7°C 43°F / 6°C 93% 29.95 in
(1014 mb)
S 10.4 mph
(S 17 kph)
0.01 in
(0.25 mm)
3SM
21:39
Overcast
Light Rain
45°F / 7°C 45°F / 7°C 100% 29.95 in
(1014 mb)
S 11.5 mph
(S 19 kph)
0.01 in
(0.25 mm)
3SM
21:14
Overcast
45°F / 7°C 43°F / 6°C 93% 29.95 in
(1014 mb)
S 12.7 mph
(S 20 kph)
- 8SM
20:53
Overcast
45°F / 7°C 43°F / 6°C 93% 29.92 in
(1013 mb)
S 15 mph
(S 24 kph)
0.00 in
(0.00 mm)
8SM
20:41
Overcast
45°F / 7°C 41°F / 5°C 87% 29.92 in
(1013 mb)
S 13.8 mph
(S 22 kph)
0.00 in
(0.00 mm)
10SM
19:53
Overcast
Light Rain
45°F / 7°C 39°F / 4°C 81% 29.89 in
(1012 mb)
SE 15 mph
(SE 24 kph)
0.01 in
(0.25 mm)
8SM
18:53
Overcast
Light Rain
45°F / 7°C 39°F / 4°C 81% 29.86 in
(1011 mb)
SE 15 mph
(SE 24 kph)
0.00 in
(0.00 mm)
10SM
18:32
Overcast
45°F / 7°C 37°F / 3°C 76% 29.86 in
(1011 mb)
SE 17.3 mph
(SE 28 kph)
- 10SM
17:53
Overcast
46°F / 8°C 37°F / 3°C 71% 29.83 in
(1010 mb)
ESE 19.6 mph
(ESE 32 kph)
- 10SM
16:53
Overcast
45°F / 7°C 37°F / 3°C 76% 29.83 in
(1010 mb)
E 23 mph
(E 37 kph)
- 10SM
15:53
Overcast
45°F / 7°C 36°F / 2°C 71% 29.83 in
(1010 mb)
E 24.2 mph
(E 39 kph)
0.00 in
(0.00 mm)
10SM
14:53
Overcast
Light Rain
43°F / 6°C 36°F / 2°C 76% 29.86 in
(1011 mb)
ESE 24.2 mph
(ESE 39 kph)
0.01 in
(0.25 mm)
10SM
13:53
Overcast
Light Rain
41°F / 5°C 36°F / 2°C 81% 29.86 in
(1011 mb)
ESE 21.9 mph
(ESE 35 kph)
0.02 in
(0.51 mm)
9SM
12:53
Overcast
Light Rain
43°F / 6°C 34°F / 1°C 71% 29.89 in
(1012 mb)
SE 20.7 mph
(SE 33 kph)
0.01 in
(0.25 mm)
9SM
11:53
Overcast
Light Rain
43°F / 6°C 36°F / 2°C 76% 29.92 in
(1013 mb)
ESE 23 mph
(ESE 37 kph)
0.02 in
(0.51 mm)
10SM
10:53
Overcast
Light Rain
43°F / 6°C 34°F / 1°C 71% 29.95 in
(1014 mb)
ESE 23 mph
(ESE 37 kph)
0.00 in
(0.00 mm)
10SM
09:53
Overcast
45°F / 7°C 32°F / 0°C 61% 29.95 in
(1014 mb)
ESE 23 mph
(ESE 37 kph)
- 10SM
08:53
Overcast
45°F / 7°C 32°F / 0°C 61% 29.98 in
(1015 mb)
ESE 18.4 mph
(ESE 30 kph)
- 10SM
07:53
Overcast
45°F / 7°C 30°F / -1°C 57% 29.98 in
(1015 mb)
ESE 21.9 mph
(ESE 35 kph)
- 10SM
06:53
Overcast
43°F / 6°C 32°F / 0°C 66% 29.98 in
(1015 mb)
ESE 21.9 mph
(ESE 35 kph)
- 10SM
05:53
Overcast
43°F / 6°C 30°F / -1°C 61% 30.01 in
(1016 mb)
ESE 15 mph
(ESE 24 kph)
- 10SM
04:53
Overcast
43°F / 6°C 30°F / -1°C 61% 30.01 in
(1016 mb)
E 16.1 mph
(E 26 kph)
- 10SM
03:53
Overcast
41°F / 5°C 30°F / -1°C 66% 30.04 in
(1017 mb)
ESE 19.6 mph
(ESE 32 kph)
0.01 in
(0.25 mm)
10SM
02:53
Overcast
37°F / 3°C 30°F / -1°C 75% 30.04 in
(1017 mb)
E 10.4 mph
(E 17 kph)
0.00 in
(0.00 mm)
10SM
02:37
Overcast
37°F / 3°C 32°F / 0°C 81% 30.06 in
(1018 mb)
E 10.4 mph
(E 17 kph)
0.00 in
(0.00 mm)
10SM
02:01
Overcast
Light Rain
39°F / 4°C 30°F / -1°C 70% 30.06 in
(1018 mb)
E 10.4 mph
(E 17 kph)
0.00 in
(0.00 mm)
10SM
01:53
Overcast
Light Rain
39°F / 4°C 28°F / -2°C 65% 30.06 in
(1018 mb)
E 16.1 mph
(E 26 kph)
0.00 in
(0.00 mm)
10SM
00:53
Overcast
39°F / 4°C 27°F / -3°C 61% 30.06 in
(1018 mb)
SE 13.8 mph
(SE 22 kph)
- 10SM
Time Weather Temperature Dewpoint Humidity Pressure Winds Precip Visibility


Weather for websites

WeatherForYou.com, LLC is not responsible for any damages or problems caused by this service. Current weather conditions are obtained from the closest station including government and personal stations which may have varying degrees of accuracy. Weather forecasts are derived from the NOAA NDFD. Like all things, this site belongs to Jesus Christ... He just trusts me to maintain it. If you have any questions or comments email webmaster@weatherforyou.com

Copyright © 2015, WeatherForYou.com LLC. All rights reserved.